This is the latest recevied weather packets stored in our database for station/object JR5IZI-13. If no packets are shown the sender has not sent any weather packets the latest 10 day(s).
| Time | Temp. | Humidity | Pressure | Rain* | Wind** | Luminosity | Snow |
|---|---|---|---|---|---|---|---|
| 1777713715 | 20° C | 55% | 1006.3 hPa | - | - | - | - |
| 1777712848 | 20° C | 54% | 1006.3 hPa | - | - | - | - |
| 1777711961 | 20° C | 53% | 1006.4 hPa | - | - | - | - |
| 1777711233 | 20° C | 51% | 1006.4 hPa | - | - | - | - |
| 1777710516 | 20° C | 52% | 1006.2 hPa | - | - | - | - |
| 1777709656 | 20° C | 55% | 1006.2 hPa | - | - | - | - |
| 1777708765 | 20° C | 54% | 1006 hPa | - | - | - | - |
| 1777707959 | 20° C | 54% | 1006 hPa | - | - | - | - |
| 1777707115 | 20° C | 53% | 1005.9 hPa | - | - | - | - |
| 1777706307 | 20° C | 54% | 1005.9 hPa | - | - | - | - |
| 1777705424 | 20° C | 55% | 1005.8 hPa | - | - | - | - |
| 1777704648 | 18.89° C | 56% | 1005.7 hPa | - | - | - | - |
| 1777703756 | 18.89° C | 57% | 1005.7 hPa | - | - | - | - |
| 1777702883 | 18.89° C | 56% | 1005.7 hPa | - | - | - | - |
| 1777702159 | 18.89° C | 56% | 1005.7 hPa | - | - | - | - |
| 1777701333 | 18.89° C | 56% | 1005.8 hPa | - | - | - | - |
| 1777700578 | 18.89° C | 56% | 1005.9 hPa | - | - | - | - |
| 1777699783 | 18.89° C | 55% | 1006 hPa | - | - | - | - |
| 1777699056 | 18.89° C | 55% | 1006 hPa | - | - | - | - |
| 1777698334 | 18.89° C | 55% | 1006.2 hPa | - | - | - | - |
| 1777697565 | 18.89° C | 55% | 1006.3 hPa | - | - | - | - |
| 1777696768 | 18.89° C | 57% | 1006.6 hPa | - | - | - | - |
| 1777695913 | 17.78° C | 57% | 1006.7 hPa | - | - | - | - |
| 1777695169 | 17.78° C | 58% | 1006.9 hPa | - | - | - | - |
| 1777694403 | 17.78° C | 58% | 1006.9 hPa | - | - | - | - |
* Rain since midnight (hover to see other rain measurements)
** Current wind speed in m/s (hover to see current wind gust speed)